User: anonymous   Login
Location: Gwatt
(46.7204°N, 7.6223°E)
Time: 01:04:34
(UTC+00:00)
Language:

deb Explorer IX - Orbit

View from above orbital plane
View from above orbital plane
View from above satellite
View from above satellite

Ground track
Ground track

The orbit data is extracted from the following two-line orbital elements,

1 00085U 61004C   21125.34261693  .00000481  00000-0  12248-3 0  9992
2 00085  38.7730 177.4220 0386719 125.7975 237.9357 14.21657238976902
Epoch (UTC): 05 May 2021 08:13:22
Eccentricity: 0.0386719
inclination: 38.7730°
perigee height: 541 km
apogee height: 1098 km
right ascension of ascending node: 177.4220°
argument of perigee: 125.7975°
revolutions per day: 14.21657238
mean anomaly at epoch: 237.9357°
orbit number at epoch: 97690

The dashed part of the orbit path shows where the satellite is in the earth's shadow,  

DLR